Terminal Aerodrome Forecast
Issued by NWS Sioux Falls, SD

Home | Current Version | Previous Version | Graphics & Text | Print | Product List | Glossary On
Versions: 1 2 3 4 5 6 7 8 9 10 11 12 13 14
000
FTUS43 KFSD 201120
TAFHON
TAF
KHON 201120Z 2012/2112 30006KT P6SM SKC
     FM201800 28012G20KT P6SM SKC
     FM202100 31020G27KT P6SM SCT060
     FM210100 31012G18KT P6SM SKC
     FM210300 33008KT P6SM SKC=

USA.gov is the U.S. government's official web portal to all federal, state and local government web resources and services.